Location: Alsip
(41.6689°N, 87.7387°W)
Time: 14:23:06
(UTC+00:00)

Cosmos 2242 Rocket - Pass Details

Date: 14 July 2020
Orbit: 619 x 651 km, 82.5° (Epoch: 04 August)

Event Time Altitude Azimuth Distance (km) Brightness Sun altitude
Rises 06:34:27 0° 356° (N) 2,973 8.3 -26.1°
Reaches altitude 10° 06:36:47 10° 2° (N) 2,055 7.2 -26.1°
Maximum altitude 06:41:14 53° 79° (E) 791 4.1 -25.9°
Enters shadow 06:41:16 53° 81° (E) 791 4.1 -25.9°
